Location: Sungai Bunut
(2.6333°N, 113.7333°E)
Time: 20:04:57
(UTC+00:00)

Okean 2 Rocket - Pass Details

Date: 16 October 2021
Orbit: 616 x 642 km, 82.5° (Epoch: 07 December)

Event Time Altitude Azimuth Distance (km) Brightness Sun altitude
Rises 21:43:06 0° 341° (NNW) 2,931 6.2 -7.2°
Reaches altitude 10° 21:45:29 10° 332° (NNW) 2,023 5.4 -6.6°
Maximum altitude 21:49:34 35° 267° (W) 1,040 3.7 -5.6°
Drops below altitude 10° 21:53:38 10° 201° (SSW) 2,020 5.6 -4.6°
Sets 21:56:02 0° 192° (SSW) 2,926 6.5 -4.0°
